Photometre #851[NE_1.6_Dp] Glasgow_MO AOT

File : 20220924_851.hum

24/09/2022,07:10:37,TEMP=7.7,BA=5.64,STAT.A,ExtBa=12.20
24/09/2022,07:15:17,TEMP=7.9,BA=5.64,STAT.A,ExtBa=12.10
24/09/2022,07:18:23,TEMP=8.1,BA=5.64,STAT.D,ExtBa=12.00
24/09/2022,07:20:45,TEMP=8.3,BA=5.64,STAT.A,ExtBa=12.00
24/09/2022,07:24:23,TEMP=8.2,BA=5.64,STAT.D,ExtBa=12.00
24/09/2022,07:27:17,TEMP=8.4,BA=5.64,STAT.A,ExtBa=12.00
24/09/2022,07:30:23,TEMP=8.6,BA=5.64,STAT.D,ExtBa=12.00
24/09/2022,07:33:23,TEMP=8.9,BA=5.64,STAT.D,ExtBa=12.00
24/09/2022,07:35:24,TEMP=9.3,BA=5.64,STAT.A,ExtBa=12.00
24/09/2022,07:39:23,TEMP=9.2,BA=5.64,STAT.D,ExtBa=12.00
24/09/2022,07:42:23,TEMP=9.6,BA=5.60,STAT.D,ExtBa=12.00
24/09/2022,07:45:01,TEMP=9.8,BA=5.60,STAT.A,ExtBa=12.00
24/09/2022,07:48:23,TEMP=10.0,BA=5.60,STAT.D,ExtBa=12.00
24/09/2022,07:51:23,TEMP=10.3,BA=5.64,STAT.D,ExtBa=12.00
24/09/2022,07:54:23,TEMP=10.5,BA=5.64,STAT.D,ExtBa=12.00
24/09/2022,07:57:23,TEMP=10.6,BA=5.64,STAT.D,ExtBa=12.00
24/09/2022,07:59:29,TEMP=11.0,BA=5.64,STAT.B,ExtBa=12.00
24/09/2022,08:08:55,TEMP=11.7,BA=5.60,STAT.A,ExtBa=11.90
24/09/2022,08:11:35,TEMP=11.7,BA=5.64,STAT.A,ExtBa=12.00
24/09/2022,08:15:23,TEMP=11.8,BA=5.64,STAT.D,ExtBa=12.00
24/09/2022,08:18:14,TEMP=12.1,BA=5.64,STAT.A,ExtBa=12.00
24/09/2022,08:21:24,TEMP=12.4,BA=5.64,STAT.D,ExtBa=12.00
24/09/2022,08:24:23,TEMP=12.6,BA=5.64,STAT.D,ExtBa=12.00
24/09/2022,08:27:11,TEMP=12.9,BA=5.64,STAT.A,ExtBa=12.00
24/09/2022,08:30:24,TEMP=13.1,BA=5.64,STAT.D,ExtBa=12.00
24/09/2022,08:33:24,TEMP=13.3,BA=5.64,STAT.D,ExtBa=12.00
24/09/2022,08:36:24,TEMP=13.5,BA=5.64,STAT.D,ExtBa=12.00
24/09/2022,08:38:23,TEMP=13.9,BA=5.64,STAT.C,ExtBa=12.00
24/09/2022,09:02:15,TEMP=14.6,BA=5.60,STAT.A,ExtBa=11.90
24/09/2022,09:09:49,TEMP=14.4,BA=5.60,STAT.A,ExtBa=12.00
24/09/2022,09:12:03,TEMP=14.9,BA=5.64,STAT.F,ExtBa=12.00
24/09/2022,09:35:42,TEMP=15.8,BA=5.60,STAT.D,ExtBa=11.90
24/09/2022,09:43:08,TEMP=15.4,BA=5.60,STAT.D,ExtBa=12.00
24/09/2022,09:45:06,TEMP=15.9,BA=5.60,STAT.D,ExtBa=12.00
24/09/2022,09:48:24,TEMP=15.8,BA=5.60,STAT.D,ExtBa=12.00
24/09/2022,09:51:24,TEMP=15.9,BA=5.64,STAT.D,ExtBa=12.00
24/09/2022,09:54:24,TEMP=16.0,BA=5.64,STAT.D,ExtBa=12.00
24/09/2022,09:56:21,TEMP=16.3,BA=5.64,STAT.D,ExtBa=11.90
24/09/2022,10:00:24,TEMP=16.0,BA=5.64,STAT.D,ExtBa=12.00
24/09/2022,10:03:24,TEMP=16.0,BA=5.64,STAT.D,ExtBa=11.90
24/09/2022,10:06:24,TEMP=16.1,BA=5.64,STAT.D,ExtBa=11.90
24/09/2022,10:09:24,TEMP=16.2,BA=5.64,STAT.D,ExtBa=11.90
24/09/2022,10:11:24,TEMP=16.5,BA=5.64,STAT.F,ExtBa=11.90
24/09/2022,10:36:07,TEMP=17.2,BA=5.60,STAT.D,ExtBa=11.90
24/09/2022,10:42:30,TEMP=17.2,BA=5.60,STAT.D,ExtBa=12.00
24/09/2022,10:44:28,TEMP=17.7,BA=5.60,STAT.D,ExtBa=11.90
24/09/2022,10:48:24,TEMP=17.5,BA=5.60,STAT.D,ExtBa=12.00
24/09/2022,10:51:24,TEMP=17.7,BA=5.64,STAT.D,ExtBa=12.00
24/09/2022,10:54:24,TEMP=17.8,BA=5.64,STAT.D,ExtBa=12.00
24/09/2022,10:56:22,TEMP=18.2,BA=5.64,STAT.D,ExtBa=11.90
24/09/2022,11:02:53,TEMP=17.8,BA=5.60,STAT.D,ExtBa=12.00
24/09/2022,11:06:24,TEMP=18.0,BA=5.60,STAT.D,ExtBa=12.00
24/09/2022,11:09:24,TEMP=18.1,BA=5.60,STAT.D,ExtBa=12.00
24/09/2022,11:11:24,TEMP=18.5,BA=5.60,STAT.F,ExtBa=11.90
24/09/2022,11:35:41,TEMP=19.1,BA=5.60,STAT.D,ExtBa=11.90
24/09/2022,11:39:24,TEMP=18.9,BA=5.60,STAT.D,ExtBa=11.90
24/09/2022,11:41:22,TEMP=19.3,BA=5.60,STAT.D,ExtBa=11.90
24/09/2022,11:47:48,TEMP=19.1,BA=5.60,STAT.D,ExtBa=12.00
24/09/2022,11:51:24,TEMP=19.3,BA=5.64,STAT.D,ExtBa=11.90
24/09/2022,11:54:24,TEMP=19.5,BA=5.64,STAT.D,ExtBa=11.90
24/09/2022,11:56:21,TEMP=19.8,BA=5.64,STAT.D,ExtBa=11.90
24/09/2022,12:03:13,TEMP=19.6,BA=5.60,STAT.D,ExtBa=12.00
24/09/2022,12:06:24,TEMP=19.8,BA=5.60,STAT.D,ExtBa=12.00
24/09/2022,12:09:24,TEMP=19.9,BA=5.60,STAT.D,ExtBa=11.90
24/09/2022,12:11:40,TEMP=20.1,BA=5.60,STAT.F,ExtBa=11.90
24/09/2022,12:35:11,TEMP=20.8,BA=5.60,STAT.D,ExtBa=11.90
24/09/2022,12:39:24,TEMP=20.6,BA=5.60,STAT.D,ExtBa=12.00
24/09/2022,12:41:21,TEMP=21.0,BA=5.60,STAT.D,ExtBa=11.90
24/09/2022,12:45:24,TEMP=20.6,BA=5.60,STAT.D,ExtBa=12.00
24/09/2022,12:48:24,TEMP=20.3,BA=5.60,STAT.D,ExtBa=11.90
24/09/2022,12:55:53,TEMP=19.7,BA=5.64,STAT.D,ExtBa=12.00
24/09/2022,13:00:24,TEMP=20.1,BA=5.64,STAT.D,ExtBa=12.00
24/09/2022,13:03:24,TEMP=20.4,BA=5.64,STAT.D,ExtBa=12.00
24/09/2022,13:06:24,TEMP=20.7,BA=5.64,STAT.D,ExtBa=12.00
24/09/2022,13:09:24,TEMP=20.8,BA=5.64,STAT.D,ExtBa=11.90
24/09/2022,13:11:23,TEMP=21.0,BA=5.60,STAT.F,ExtBa=11.90
24/09/2022,13:24:24,TEMP=20.4,BA=5.64,STAT.D,ExtBa=12.00
24/09/2022,13:26:26,TEMP=21.0,BA=5.64,STAT.D,ExtBa=11.90
24/09/2022,13:30:24,TEMP=20.7,BA=5.64,STAT.D,ExtBa=12.00
24/09/2022,13:33:24,TEMP=20.5,BA=5.64,STAT.D,ExtBa=12.00
24/09/2022,13:36:24,TEMP=20.2,BA=5.64,STAT.D,ExtBa=12.00
24/09/2022,13:39:24,TEMP=20.2,BA=5.64,STAT.D,ExtBa=12.00
24/09/2022,13:41:21,TEMP=20.5,BA=5.56,STAT.D,ExtBa=11.90
24/09/2022,13:45:24,TEMP=20.3,BA=5.56,STAT.D,ExtBa=12.00
24/09/2022,13:48:24,TEMP=20.1,BA=5.56,STAT.D,ExtBa=12.00
24/09/2022,13:55:53,TEMP=19.0,BA=5.60,STAT.D,ExtBa=12.00
24/09/2022,14:00:24,TEMP=18.8,BA=5.64,STAT.D,ExtBa=12.00
24/09/2022,14:03:24,TEMP=18.6,BA=5.64,STAT.D,ExtBa=12.00
24/09/2022,14:06:24,TEMP=18.5,BA=5.64,STAT.D,ExtBa=11.90
24/09/2022,14:09:24,TEMP=18.5,BA=5.64,STAT.D,ExtBa=11.90
24/09/2022,14:11:26,TEMP=18.8,BA=5.56,STAT.F,ExtBa=11.90
24/09/2022,14:25:53,TEMP=18.0,BA=5.56,STAT.D,ExtBa=12.00
24/09/2022,14:30:24,TEMP=18.1,BA=5.64,STAT.D,ExtBa=12.00
24/09/2022,14:33:24,TEMP=18.3,BA=5.64,STAT.D,ExtBa=11.90
24/09/2022,14:40:53,TEMP=17.7,BA=5.64,STAT.D,ExtBa=12.00
24/09/2022,14:54:24,TEMP=16.7,BA=5.64,STAT.D,ExtBa=12.00
24/09/2022,14:56:21,TEMP=17.0,BA=5.64,STAT.D,ExtBa=12.00
24/09/2022,15:09:24,TEMP=15.8,BA=5.64,STAT.D,ExtBa=12.00
24/09/2022,15:11:22,TEMP=16.1,BA=5.60,STAT.F,ExtBa=12.00
24/09/2022,15:16:44,TEMP=15.4,BA=5.60,STAT.A,ExtBa=12.00
24/09/2022,15:30:24,TEMP=14.7,BA=5.64,STAT.D,ExtBa=12.00
24/09/2022,15:32:23,TEMP=15.2,BA=5.64,STAT.A,ExtBa=12.00
24/09/2022,15:36:24,TEMP=15.2,BA=5.64,STAT.D,ExtBa=12.00
24/09/2022,15:39:24,TEMP=15.8,BA=5.64,STAT.D,ExtBa=12.00
24/09/2022,15:42:24,TEMP=16.3,BA=5.56,STAT.D,ExtBa=11.90
24/09/2022,15:44:23,TEMP=16.8,BA=5.56,STAT.C,ExtBa=11.90
24/09/2022,16:09:34,TEMP=18.3,BA=5.60,STAT.A,ExtBa=11.90
24/09/2022,16:17:11,TEMP=17.3,BA=5.56,STAT.A,ExtBa=12.00
24/09/2022,16:19:23,TEMP=17.5,BA=5.56,STAT.A,ExtBa=11.90
24/09/2022,16:21:37,TEMP=17.4,BA=5.52,STAT.A,ExtBa=11.90
24/09/2022,16:24:15,TEMP=17.1,BA=5.52,STAT.B,ExtBa=11.90
24/09/2022,16:33:23,TEMP=16.8,BA=5.52,STAT.D,ExtBa=11.90
24/09/2022,16:36:23,TEMP=16.6,BA=5.52,STAT.D,ExtBa=11.90
24/09/2022,16:38:23,TEMP=16.8,BA=5.52,STAT.A,ExtBa=11.90
24/09/2022,16:42:23,TEMP=16.3,BA=5.56,STAT.D,ExtBa=11.90
24/09/2022,16:45:23,TEMP=16.1,BA=5.56,STAT.D,ExtBa=11.90
24/09/2022,16:47:23,TEMP=16.2,BA=5.56,STAT.A,ExtBa=11.90
24/09/2022,16:51:23,TEMP=15.5,BA=5.64,STAT.D,ExtBa=11.90
24/09/2022,16:54:31,TEMP=15.2,BA=5.64,STAT.A,ExtBa=11.90
24/09/2022,17:01:03,TEMP=14.4,BA=5.64,STAT.A,ExtBa=12.00
24/09/2022,17:06:31,TEMP=14.0,BA=5.64,STAT.A,ExtBa=12.00
24/09/2022,17:11:11,TEMP=13.8,BA=5.64,STAT.A,ExtBa=12.00